Theta_e
339 340 343 344 345 344 343 343 342 343 344 344 345 346 346 345 344 343 341 341 341 338 332 327 327 329 330 330 331 333 334 335 337 338 339 339 339 339 340 340 340 341 341 341 341 341 342 341 340 340 341 342 342 342 342 342 340 338 339 337 334 332 332 334 335 337 339 339 341 341 341 342 341 342 342 340 338 336 334 333 333 334 335 336 339
339 340 343 344 343 342 341 341 341 341 343 342 343 346 345 343 342 340 339 337 335 331 327 326 328 330 330 331 332 333 336 338 338 338 338 338 338 339 339 340 340 341 341 341 341 340 341 341 340 340 340 341 341 341 341 341 340 338 339 338 335 332 332 332 334 337 339 340 341 341 341 341 341 341 341 339 336 334 333 335 336 336 335 336 337
339 341 343 343 342 341 340 339 339 340 342 342 343 345 344 342 340 338 334 331 329 327 326 328 330 330 330 331 333 336 338 339 338 338 338 338 338 339 339 339 340 341 341 341 341 340 341 341 341 340 339 340 341 341 341 341 340 339 340 340 337 335 334 332 332 335 339 341 341 341 342 342 341 341 339 336 334 334 335 337 337 337 337 337 337
340 342 342 342 342 342 341 340 339 339 341 342 344 344 344 341 338 335 331 327 326 326 327 330 330 329 330 332 336 338 339 338 337 337 338 339 339 339 338 338 339 340 341 341 341 340 340 341 341 340 340 340 341 341 341 341 340 339 340 340 338 336 335 335 334 334 336 339 340 341 341 341 341 340 337 335 335 335 336 337 337 337 338 338 337
341 342 342 342 342 342 341 341 339 338 340 341 342 343 342 338 334 332 328 325 326 327 329 329 329 329 331 334 338 339 338 337 337 338 338 338 338 338 338 337 338 339 340 340 340 340 341 341 341 340 341 341 340 340 340 340 339 340 340 340 340 337 334 335 335 334 333 335 337 338 340 341 341 340 336 336 336 336 337 338 338 338 338 338 337
342 342 342 341 342 342 341 341 339 338 339 340 340 340 340 336 332 331 327 325 327 329 329 328 328 329 332 336 338 338 338 337 337 338 338 338 338 338 337 337 337 338 339 340 340 340 340 341 341 340 341 340 340 340 339 339 339 340 340 341 342 339 336 334 334 335 332 331 333 335 338 341 341 340 338 338 338 338 338 338 338 339 338 338 337
343 342 343 342 343 342 341 341 340 338 338 339 338 339 338 335 333 331 327 328 329 329 328 327 328 329 331 334 337 338 338 337 337 338 338 338 337 336 337 337 337 338 339 339 339 340 340 341 341 340 340 341 341 340 341 341 340 340 340 341 342 341 338 334 333 335 334 332 333 335 338 340 340 340 339 339 339 338 338 337 338 339 339 338 337
343 343 343 342 342 341 341 341 340 339 339 337 336 338 338 336 334 331 329 329 329 328 327 327 328 328 329 332 336 337 338 338 337 337 338 337 336 336 336 337 337 338 339 339 339 338 339 340 340 339 339 340 340 341 341 342 341 341 341 341 341 342 340 335 333 334 335 335 335 336 339 341 341 340 339 340 339 338 338 336 337 338 339 339 338
343 343 343 342 342 342 341 340 340 340 339 336 336 337 336 335 333 331 330 329 328 328 327 328 329 328 330 332 336 337 337 338 337 336 336 336 336 337 336 337 338 339 339 339 339 339 339 339 339 339 339 340 340 341 341 341 341 341 341 341 341 342 341 337 334 333 334 336 337 338 340 341 341 340 340 340 339 339 337 336 336 338 339 339 339
343 343 344 343 342 342 341 341 341 340 338 337 336 335 334 332 331 330 330 329 328 328 328 329 329 330 331 334 336 337 337 337 337 335 335 337 338 338 337 337 338 339 339 339 339 338 338 339 339 339 339 339 340 340 341 341 341 341 341 341 341 341 341 339 335 332 333 334 336 338 340 341 341 340 341 340 339 339 338 337 336 336 338 339 340
343 344 343 343 343 342 342 341 340 340 338 337 336 334 332 331 330 330 330 329 328 329 329 330 330 331 334 336 336 337 336 336 336 334 335 337 338 338 337 337 338 338 338 338 338 338 337 338 339 340 340 339 340 341 340 341 342 341 341 341 341 340 341 339 335 333 333 334 335 338 339 340 340 340 340 340 339 339 339 339 338 336 336 338 340
343 343 343 343 343 343 342 341 340 339 338 337 336 334 333 331 330 330 330 330 329 329 330 331 333 334 336 336 337 336 335 335 335 334 335 337 337 337 336 336 336 337 337 337 338 338 339 339 339 339 340 339 339 340 340 341 341 341 341 341 341 340 340 340 338 335 333 334 335 338 339 338 340 341 340 340 339 340 340 340 340 337 335 337 339
343 343 342 342 343 343 342 341 340 339 337 337 336 335 333 331 330 330 330 330 329 330 330 333 335 336 337 337 337 337 335 334 334 334 336 337 337 337 336 335 335 337 338 338 340 340 340 340 340 339 339 339 338 339 340 341 341 341 341 341 341 341 341 341 341 337 332 334 335 336 338 339 340 341 340 340 340 340 341 341 340 338 336 336 338
344 343 342 343 343 343 342 341 340 339 337 336 336 335 333 331 331 331 331 330 330 330 331 333 336 337 337 337 338 337 335 334 334 334 336 337 338 338 336 335 335 336 338 339 340 341 341 339 339 339 339 339 338 338 339 341 341 341 341 341 341 341 342 342 340 336 331 333 335 335 336 338 340 341 341 341 340 341 341 341 341 340 337 336 336
344 343 343 343 344 343 342 341 340 339 337 337 336 334 332 331 331 331 332 331 331 331 333 335 336 337 337 337 338 336 332 333 333 334 336 337 338 338 336 335 335 336 336 338 339 340 340 339 338 339 338 339 339 338 340 342 342 341 341 342 341 340 342 342 341 337 332 332 334 335 334 336 340 341 341 341 341 341 341 341 341 340 338 337 336
343 342 342 344 344 344 342 341 340 339 337 337 336 334 332 332 332 332 333 332 331 331 332 334 335 336 336 336 337 334 330 332 333 334 336 337 339 339 336 335 336 337 337 337 338 339 339 338 338 338 339 339 339 340 341 342 342 343 342 342 341 340 341 342 342 338 334 332 333 334 334 336 338 340 341 341 341 341 341 340 340 340 339 338 336
343 342 343 344 344 344 343 342 340 338 337 336 335 333 332 332 333 333 333 332 331 331 331 332 335 336 336 336 336 332 329 332 332 334 336 336 339 339 337 336 337 338 338 338 338 339 339 338 339 339 339 339 339 340 341 342 342 343 342 342 342 340 340 341 341 339 335 333 332 332 333 335 337 339 341 340 341 341 340 340 339 339 339 338 337
342 342 344 344 345 344 344 343 341 339 338 337 334 331 331 331 332 332 332 331 330 330 330 332 335 337 336 335 335 331 329 332 332 334 336 337 339 340 339 337 337 338 338 339 339 339 340 341 341 339 339 338 338 338 338 340 341 342 341 341 342 342 341 341 341 341 338 335 334 332 332 335 338 339 340 340 339 340 339 338 338 338 338 338 338
343 342 343 344 345 345 344 343 343 341 340 339 336 333 332 331 331 331 331 331 331 331 331 333 336 337 336 335 335 332 330 332 333 335 337 337 338 340 339 337 337 337 338 339 340 340 341 343 343 341 340 339 338 339 338 339 340 340 339 341 342 342 342 342 341 341 341 338 335 334 332 334 337 339 339 339 339 339 337 336 336 337 338 338 338
342 341 341 342 344 345 345 344 344 343 341 339 338 338 336 334 334 333 332 332 332 331 332 335 337 337 337 336 335 332 330 332 333 335 337 337 338 340 340 337 335 336 337 340 341 341 342 343 344 343 342 341 340 340 340 340 341 340 339 340 340 341 341 341 341 341 341 340 338 336 334 333 335 338 339 339 340 339 337 335 335 336 338 339 338
342 340 340 341 343 345 344 344 345 344 342 341 340 340 340 339 338 336 335 335 334 334 335 337 338 338 338 337 334 331 331 333 334 336 337 337 337 339 340 338 335 334 336 340 342 342 343 344 344 345 344 343 341 339 339 339 340 340 339 339 340 341 342 342 341 341 341 341 340 337 336 335 334 337 340 340 340 339 337 336 335 336 337 339 339
341 340 340 340 341 344 345 344 345 344 343 342 341 342 342 341 339 338 337 337 336 336 337 339 339 338 338 336 333 330 331 333 334 336 337 337 337 338 340 339 336 334 335 340 343 343 343 344 345 345 344 343 340 337 336 335 335 336 336 339 341 342 343 343 342 340 340 340 340 339 337 336 335 336 339 340 340 339 338 337 336 336 337 338 338
342 341 340 339 339 342 344 345 345 344 343 342 341 342 343 342 340 338 338 338 338 338 338 339 339 338 337 334 331 330 332 333 334 337 337 337 337 339 340 339 338 335 336 341 343 343 344 343 343 344 343 343 339 335 335 334 334 334 335 338 338 338 340 343 343 341 341 340 339 340 339 338 337 337 339 339 339 339 339 338 336 336 336 337 337
342 342 341 340 339 340 342 344 344 344 343 342 342 342 343 342 340 339 339 339 339 339 338 339 338 337 335 332 330 330 332 334 335 338 338 337 338 341 342 339 339 338 339 342 343 344 344 341 342 343 343 343 339 335 336 336 335 335 336 338 336 336 336 339 343 343 343 341 339 340 339 339 339 339 340 339 339 339 339 338 338 336 336 336 336
342 341 342 342 341 341 341 342 344 344 343 342 342 342 343 342 340 339 339 339 338 338 338 338 338 336 334 331 330 332 332 335 338 339 338 337 339 343 342 340 339 340 341 343 344 345 344 343 342 342 342 342 340 337 337 337 336 335 336 337 337 337 337 337 340 343 344 342 342 342 340 339 340 340 341 340 339 338 338 338 338 338 337 336 336
342 342 342 342 343 343 342 343 344 343 344 342 341 341 341 341 339 338 338 338 337 337 338 337 336 335 333 330 331 333 334 337 340 340 338 337 341 344 343 340 340 341 342 343 344 344 344 343 343 343 342 342 341 338 338 338 337 336 335 336 337 338 338 337 338 341 342 342 341 341 340 339 339 340 342 341 340 338 338 338 338 338 337 337 337
342 342 342 342 342 343 342 343 343 343 343 341 341 341 340 338 338 337 336 336 335 335 336 334 333 331 330 330 332 335 337 338 340 341 340 339 342 344 343 341 341 342 343 343 344 344 344 343 343 343 343 342 341 339 338 338 338 336 336 336 336 337 337 338 338 337 338 338 337 337 337 338 339 340 341 342 341 340 339 338 337 338 337 337 337
342 342 342 342 343 343 343 343 343 342 341 340 340 339 338 337 337 337 335 335 334 333 333 332 330 329 330 332 334 337 338 337 340 341 341 341 342 344 344 343 343 344 345 345 345 345 345 344 344 343 342 341 340 338 339 339 338 336 336 336 337 336 336 337 337 337 336 336 335 334 335 336 337 339 340 342 342 341 341 339 337 337 338 338 337
341 341 342 343 343 343 343 342 341 340 339 338 337 337 336 336 336 336 335 334 333 331 331 330 329 330 331 332 335 339 338 337 341 342 342 343 343 344 345 344 345 345 345 345 345 346 345 345 345 345 343 343 341 338 338 339 338 336 334 335 337 336 335 336 336 337 338 336 334 333 333 335 336 338 340 341 342 342 342 341 339 338 338 339 338
340 340 341 342 341 341 340 339 338 338 337 337 336 336 336 337 337 336 335 334 332 330 330 330 330 331 333 333 336 339 339 339 342 344 344 346 345 345 346 346 346 346 346 346 346 346 346 345 345 346 346 345 344 340 338 339 338 337 334 334 337 337 335 335 335 336 337 338 336 334 334 334 333 336 339 340 341 342 342 342 340 339 339 339 338
338 339 339 339 339 339 338 337 337 337 337 337 336 337 338 338 337 335 334 333 331 330 330 330 331 332 333 333 336 340 341 341 343 344 346 346 346 346 347 347 347 346 346 346 346 346 346 346 345 346 346 345 346 342 340 340 338 338 336 333 334 336 335 334 334 335 336 337 336 336 336 335 332 333 337 339 340 342 342 342 341 340 340 339 338
337 337 337 337 338 338 338 338 338 337 337 337 337 338 339 338 337 334 333 333 331 330 330 331 333 333 334 334 337 340 342 342 344 345 346 347 347 347 347 347 347 346 346 346 346 346 346 346 346 346 345 345 346 343 340 340 338 337 338 336 333 334 336 335 334 335 335 336 336 336 337 336 334 333 334 337 339 341 342 342 341 341 341 340 339
337 336 336 337 337 337 338 338 338 338 338 338 338 338 338 338 336 334 333 332 332 331 331 332 333 334 336 337 338 341 342 343 344 346 346 347 347 347 347 347 347 346 346 347 347 347 347 347 346 346 346 345 345 343 340 340 339 338 338 337 332 332 336 336 335 335 335 335 335 336 337 337 336 335 333 334 337 339 340 341 341 341 342 341 341
338 337 337 336 337 338 338 338 338 338 338 338 338 338 338 337 336 334 333 332 332 332 332 333 334 336 337 339 340 341 342 344 345 346 347 347 346 347 346 346 346 346 345 346 346 347 347 347 347 347 347 346 345 344 341 340 340 339 337 334 330 331 336 336 335 334 334 334 334 336 337 337 337 336 335 335 335 336 338 340 341 341 341 341 341
338 337 337 337 337 338 338 338 339 338 338 338 338 338 338 337 336 334 333 333 332 332 332 333 334 336 337 339 341 341 342 343 344 345 345 345 344 345 345 345 345 345 343 344 345 346 346 347 347 347 347 346 345 344 342 341 340 339 337 333 331 334 336 336 336 335 334 334 335 337 336 336 337 336 337 336 335 334 335 338 339 340 341 341 340
337 336 336 337 337 338 338 338 338 338 338 338 338 338 337 337 336 334 333 333 333 333 333 334 334 336 337 339 342 342 343 343 344 344 344 343 342 343 343 344 344 344 343 343 343 344 344 345 346 347 347 347 346 345 344 342 340 340 338 334 334 336 336 337 337 336 335 335 336 337 336 335 336 336 337 337 336 336 335 334 334 336 340 341 340
337 337 336 337 338 338 338 338 338 338 337 338 338 338 338 338 336 335 334 334 334 335 335 336 336 336 337 340 344 345 345 345 346 347 345 343 344 344 343 343 343 343 343 344 343 343 344 344 346 347 347 347 347 346 345 344 341 341 338 333 333 336 336 336 337 336 336 337 337 337 336 334 334 334 335 336 337 338 338 337 334 333 335 338 338
339 338 338 337 338 338 338 339 338 338 338 338 338 337 338 338 338 336 336 336 336 337 338 338 338 339 339 342 346 347 347 348 349 349 348 347 347 346 345 344 343 343 343 343 343 343 343 343 345 346 347 346 347 347 346 345 343 341 339 335 332 334 337 337 336 336 336 337 337 336 335 335 333 331 331 332 334 337 338 338 338 335 334 335 335
340 339 338 338 338 338 339 339 339 339 338 338 338 338 338 340 340 338 337 338 339 339 339 340 340 341 343 344 347 348 348 349 349 349 349 349 349 348 347 346 345 344 343 343 343 342 343 344 345 346 347 346 346 347 347 346 344 342 339 337 333 331 336 338 336 336 336 337 337 335 335 335 333 330 329 329 329 332 333 335 338 337 336 335 333
340 340 340 339 339 339 339 340 339 339 338 338 339 339 339 341 342 341 338 338 340 341 341 341 341 343 345 346 347 348 349 349 349 349 349 350 350 349 348 347 346 345 343 343 343 343 344 345 347 347 346 346 346 347 346 346 345 342 338 338 335 331 333 337 337 336 336 336 336 335 334 335 333 329 327 327 326 327 328 331 334 335 335 335 334
342 341 340 340 340 340 340 340 340 339 338 338 338 338 339 341 342 342 340 338 339 342 342 342 343 344 346 347 347 348 348 348 349 349 350 350 350 349 348 347 345 344 343 343 343 344 345 346 347 347 346 346 346 346 346 345 344 342 338 335 334 333 332 336 337 335 335 336 336 335 334 335 334 329 327 326 325 326 326 327 330 330 331 333 333
343 341 341 340 340 340 339 339 340 339 338 338 338 338 339 340 341 341 341 339 338 340 341 342 343 343 345 346 347 347 347 348 348 348 350 351 351 350 348 347 345 344 344 344 344 345 346 347 347 346 345 345 346 346 345 344 342 341 337 331 331 334 334 335 336 333 333 335 336 336 334 335 334 329 327 326 325 325 325 324 325 325 325 327 328
344 342 340 341 341 340 339 339 339 340 339 338 339 339 339 339 340 341 341 340 339 339 341 343 344 344 344 344 345 346 346 346 347 348 350 351 352 351 350 348 347 347 346 345 345 345 345 347 346 345 345 345 346 345 344 343 341 337 331 328 331 334 335 337 336 332 332 334 336 336 335 335 334 330 327 326 324 323 322 322 323 324 323 323 323
346 343 341 342 341 340 340 340 339 340 340 339 339 340 340 340 340 341 342 342 341 340 341 343 344 344 343 343 343 344 345 345 346 348 350 351 352 351 351 350 350 349 348 346 346 345 345 346 346 345 345 344 344 344 344 343 338 332 329 330 332 334 336 338 337 335 334 334 336 336 335 335 335 330 327 326 324 321 320 323 326 327 326 324 322
346 343 342 341 340 340 340 340 340 340 340 340 340 340 341 342 341 341 342 343 343 342 342 342 343 343 342 342 342 343 344 345 346 347 349 351 351 351 351 351 350 350 348 347 346 346 345 346 346 345 344 343 343 343 341 336 331 331 333 333 335 336 336 337 338 337 337 337 336 335 335 336 335 331 327 326 324 322 323 326 328 328 327 325 323
345 342 341 341 340 341 342 342 342 341 340 340 341 341 341 342 342 342 341 342 342 342 341 341 341 341 341 341 342 343 343 344 345 346 348 349 350 351 351 351 351 350 349 348 348 346 345 346 345 343 342 342 342 341 335 328 328 333 336 336 336 337 337 337 338 337 337 337 336 335 335 336 335 331 327 326 325 324 325 328 329 329 329 327 324
343 341 342 342 343 344 345 346 345 343 342 341 341 341 340 340 340 340 339 339 339 339 339 340 340 341 341 341 342 342 343 343 343 344 346 348 349 350 351 351 350 349 349 349 348 346 344 345 343 341 340 340 340 337 330 326 329 334 337 336 337 337 337 337 337 336 336 336 336 336 336 336 335 331 327 326 326 326 327 329 330 330 330 330 328
340 342 343 343 344 345 346 347 346 346 346 345 344 342 340 339 339 339 339 338 338 337 338 339 339 341 341 341 341 342 343 342 342 343 345 346 347 348 349 350 350 349 349 349 348 345 344 343 341 338 337 337 335 331 328 328 330 333 336 336 336 336 337 337 337 337 336 336 335 335 336 336 335 331 328 327 327 327 327 328 330 331 330 330 330
340 342 342 342 343 345 346 347 347 347 348 347 346 344 341 339 338 338 339 339 338 338 338 338 339 339 340 341 341 342 343 342 342 342 343 344 345 346 347 349 349 349 349 349 347 345 343 341 338 335 333 332 330 326 326 330 331 332 334 335 335 335 336 336 337 337 336 335 334 334 335 335 335 332 328 327 328 328 327 327 330 331 331 331 331
343 343 342 342 343 345 347 347 347 347 348 348 347 346 344 342 339 338 338 338 338 338 338 339 339 339 340 340 340 342 343 342 341 341 341 343 343 344 347 348 349 350 349 348 347 345 342 339 335 332 331 329 326 324 326 330 332 332 332 333 333 334 334 335 335 337 337 335 334 333 333 334 334 332 329 328 327 328 328 328 329 331 332 331 331
348 347 347 346 346 346 347 347 347 347 348 347 348 347 346 345 343 340 338 337 337 338 338 338 338 339 339 339 339 341 342 341 340 340 339 340 341 344 347 349 350 350 350 348 347 345 341 337 332 329 329 328 325 324 326 330 332 333 332 331 330 331 332 333 334 336 337 336 334 333 333 333 333 332 330 329 328 328 328 328 329 331 332 332 331
Wind_Speed
26 27 26 25 24 22 21 21 21 21 22 22 23 26 26 25 24 23 23 22 22 23 24 24 22 19 18 17 16 16 15 14 14 13 13 13 12 11 11 11 12 12 13 13 12 10 9 9 9 8 8 7 6 6 5 6 6 6 6 7 7 7 7 7 7 7 7 8 8 8 10 10 11 10 10 9 8 8 9 11 11 11 11 11 11
28 28 26 26 25 23 21 21 21 21 20 21 22 24 25 25 24 23 22 22 24 25 25 23 20 18 17 16 16 15 14 13 13 13 13 12 12 11 11 11 11 12 12 12 11 10 9 9 9 8 7 7 6 6 6 6 6 6 6 6 7 8 8 7 7 7 6 9 10 9 10 11 11 11 10 9 9 10 11 12 12 12 13 12 11
29 28 26 26 26 23 21 21 22 21 21 22 24 24 25 25 23 22 22 24 25 25 23 21 19 18 17 16 15 14 14 13 12 12 13 13 12 12 11 11 11 11 12 11 10 9 9 9 9 8 7 7 6 6 6 6 6 6 6 6 7 8 9 8 8 7 6 7 10 10 10 11 11 11 11 11 11 11 12 12 12 12 13 13 12
28 27 27 27 26 24 22 22 22 22 23 24 24 24 24 24 22 22 23 24 25 24 21 19 18 17 16 15 15 14 14 13 12 12 13 13 12 12 12 11 11 11 11 11 9 8 8 8 8 8 8 7 6 7 7 6 6 6 7 6 6 8 8 8 8 8 7 6 8 9 10 11 11 11 11 12 12 11 11 12 12 12 13 13 12
29 28 28 27 27 25 22 22 22 23 24 24 24 24 24 23 23 23 24 25 24 22 20 19 18 16 16 15 15 14 13 12 12 12 13 12 12 12 11 11 11 11 11 10 9 7 8 8 7 7 7 7 6 7 7 7 6 7 7 6 6 7 8 8 8 8 8 7 7 8 9 10 11 12 12 12 11 11 12 12 12 13 13 13 13
29 29 28 28 26 25 24 22 22 22 24 24 24 24 23 23 23 24 25 24 23 21 19 18 17 16 16 15 15 13 13 12 12 12 12 12 12 12 11 11 11 10 10 10 9 7 7 7 7 7 7 6 6 6 7 7 6 7 8 7 7 6 7 8 8 9 8 8 7 8 8 9 11 12 12 12 11 11 12 12 12 13 13 13 13
29 29 28 28 26 25 24 23 22 22 23 24 24 24 23 23 24 24 24 23 21 20 18 17 16 16 15 14 14 13 12 11 12 12 12 12 11 11 11 10 10 10 10 10 9 8 7 7 7 7 7 6 6 6 7 7 7 7 7 8 8 7 7 7 8 9 9 8 8 8 8 9 11 12 12 11 12 12 11 11 12 12 13 13 13
30 30 29 29 27 26 25 24 23 23 23 23 24 24 24 24 24 24 23 22 20 19 17 16 16 15 14 13 12 12 11 11 11 11 11 12 12 12 11 10 9 9 10 10 9 8 7 6 6 6 7 7 6 7 8 8 7 7 7 7 8 8 7 7 8 9 10 9 8 8 9 9 10 11 12 11 12 12 11 11 11 11 12 12 12
31 30 30 29 28 27 25 24 24 23 23 24 24 24 24 24 24 24 22 21 19 18 16 15 15 14 13 12 12 11 10 10 10 10 11 12 12 12 11 10 9 9 9 9 9 9 8 7 7 6 7 7 6 6 8 8 7 7 7 7 8 9 8 8 8 9 9 9 9 9 10 10 10 11 11 11 11 11 11 10 11 11 11 11 11
31 30 30 28 28 27 26 25 24 24 24 24 24 24 25 24 24 22 21 20 18 16 14 14 14 13 12 11 11 10 10 9 9 10 11 12 13 12 11 10 9 9 9 9 9 9 9 8 7 7 7 7 7 6 7 7 7 7 7 7 8 9 8 8 9 9 9 9 10 10 10 10 11 11 11 11 11 11 11 10 10 11 11 11 11
32 30 29 28 28 26 26 25 24 24 24 24 24 24 24 24 23 21 20 18 16 14 13 12 12 12 11 11 10 10 9 8 8 9 11 12 13 13 11 10 9 9 9 9 9 10 10 9 7 7 7 8 7 6 6 6 6 6 6 7 7 8 8 9 9 9 9 9 9 10 10 10 11 11 11 10 10 11 11 10 10 10 11 11 11
32 30 29 28 27 26 26 25 25 25 25 24 23 23 23 23 22 20 19 17 15 13 12 11 11 10 10 10 9 9 8 8 7 9 11 12 13 13 12 11 10 9 9 9 9 10 10 9 8 7 7 8 7 7 6 6 6 6 6 6 7 7 8 8 8 7 7 8 8 9 10 10 11 11 10 10 10 10 10 11 10 10 11 11 11
32 31 29 28 27 26 26 25 25 24 25 24 23 23 23 23 21 19 17 15 14 12 11 11 10 9 9 9 8 8 7 7 7 8 10 12 12 13 12 11 10 10 9 9 9 9 9 8 8 8 7 7 7 8 7 6 5 5 6 6 6 7 8 8 8 7 6 7 8 8 9 9 10 10 10 10 10 10 10 10 9 9 10 11 11
32 31 30 28 27 26 26 25 24 24 24 24 23 22 22 22 20 18 16 14 12 11 10 10 9 9 9 8 8 7 7 7 7 8 9 11 12 12 12 11 11 11 10 10 9 9 9 8 8 8 7 7 7 7 8 7 6 5 5 5 5 6 7 8 8 7 5 6 7 7 7 8 9 9 9 9 9 10 10 9 9 8 9 10 10
31 31 30 28 27 26 26 25 24 24 24 23 22 22 22 21 19 18 15 14 12 10 10 9 9 8 8 8 8 7 7 7 7 8 9 10 11 12 12 12 11 11 11 10 9 9 9 8 8 8 8 7 7 7 7 7 7 6 6 5 5 6 8 8 8 7 6 5 6 6 7 7 8 8 8 8 9 9 9 9 8 8 8 8 10
30 30 30 29 28 27 26 24 24 23 23 22 22 22 21 20 19 17 15 13 11 10 9 8 8 8 7 7 7 7 7 7 7 8 8 9 10 11 11 11 12 11 11 10 9 9 9 9 9 9 8 8 7 7 6 6 6 6 5 5 5 6 7 8 7 6 6 6 6 6 6 7 8 8 7 7 8 9 8 8 8 7 7 8 9
30 30 29 29 28 27 25 24 24 23 23 22 21 22 20 20 18 16 15 13 11 9 9 8 8 7 7 6 6 6 7 8 7 8 8 8 9 10 10 11 11 11 11 10 10 9 9 10 10 10 9 9 8 8 6 6 6 5 4 4 5 6 7 8 7 6 6 6 6 5 6 8 8 8 8 7 7 8 8 7 7 7 7 7 7
31 30 29 29 28 27 25 24 24 23 22 21 21 21 20 19 17 16 15 13 11 10 9 8 8 7 6 6 6 5 6 7 7 7 7 8 8 8 8 9 10 10 10 10 9 9 9 9 10 10 9 9 9 8 7 6 5 4 4 4 4 6 7 7 6 6 5 5 5 5 6 7 8 8 8 8 8 7 7 7 7 7 7 7 7
30 30 29 29 28 26 26 24 24 23 21 21 20 20 19 18 17 16 15 13 12 10 9 9 9 7 6 6 6 5 6 7 7 7 7 7 7 7 7 7 8 8 9 9 9 8 8 9 9 9 9 8 8 7 6 5 4 4 4 4 4 4 5 6 5 5 4 4 4 4 5 6 7 8 8 9 8 8 7 7 7 7 7 7 7
30 30 30 29 28 26 27 25 24 23 21 20 19 19 18 17 16 15 15 13 12 11 11 10 9 8 7 7 6 6 6 7 8 8 7 7 7 6 6 6 6 7 8 8 8 8 8 8 7 7 7 7 6 6 5 5 4 5 4 3 4 4 4 5 4 4 4 3 3 3 4 5 6 7 8 8 8 8 7 7 7 7 7 7 7
30 31 30 30 29 27 27 26 25 23 22 21 19 18 17 17 16 15 15 13 13 12 12 11 10 9 8 8 8 7 6 7 8 8 8 7 7 6 5 5 5 6 7 7 7 7 7 7 6 5 5 6 6 5 5 5 4 5 4 2 3 3 3 3 3 3 3 2 2 3 3 5 6 7 7 8 8 7 7 7 6 7 7 7 7
32 32 30 30 30 27 27 26 25 24 23 21 20 18 17 17 16 16 15 14 14 13 13 11 11 10 9 10 9 8 7 7 7 7 7 7 6 6 6 5 5 5 6 7 7 6 6 6 5 4 4 4 5 5 5 6 5 5 4 3 3 3 2 2 2 3 2 2 2 2 3 4 6 7 7 7 7 7 7 7 7 7 7 7 7
34 33 31 30 29 28 27 26 26 25 23 21 20 19 18 18 17 17 16 15 14 14 13 12 12 11 11 10 9 9 8 8 7 7 7 6 6 6 6 6 6 5 6 7 6 6 5 5 5 4 3 3 4 5 5 6 6 5 5 4 4 4 2 1 2 2 1 2 2 2 3 4 6 7 7 7 6 7 7 7 7 7 7 7 7
35 34 32 30 29 28 28 27 26 25 24 22 20 20 19 19 18 18 17 16 15 15 14 13 12 12 11 10 9 9 9 9 8 7 7 6 6 6 6 6 6 6 6 6 6 5 4 4 4 4 3 2 2 3 4 5 5 5 5 5 5 5 3 1 2 3 2 2 2 1 2 4 5 7 7 7 7 7 7 7 7 8 8 7 7
35 34 32 31 30 29 28 27 27 26 24 23 22 21 21 20 19 19 18 17 16 16 15 14 13 12 11 10 10 10 10 10 9 8 6 5 6 6 6 6 7 6 6 5 5 4 3 3 3 3 2 2 2 3 3 3 4 4 4 4 4 4 4 3 1 2 3 3 2 1 2 3 4 6 8 8 8 7 7 7 7 8 8 8 8
35 34 33 32 31 30 29 28 27 26 24 23 22 22 22 21 20 19 18 18 17 16 15 14 14 13 12 11 12 11 11 11 10 8 6 6 7 6 6 7 7 7 6 5 4 3 2 1 1 1 1 1 3 4 3 2 2 2 2 2 2 2 2 3 2 2 3 3 2 2 2 2 3 6 8 8 8 8 8 7 7 7 8 8 7
36 35 34 32 32 30 29 29 27 26 25 23 23 22 22 21 20 19 18 18 17 16 16 15 14 13 12 12 12 12 11 11 10 8 7 7 7 6 6 7 8 7 7 5 5 4 2 1 1 1 0 0 2 3 3 3 2 2 2 1 1 1 2 2 3 3 3 2 1 1 2 3 4 5 7 8 9 9 9 8 8 8 8 8 8
36 34 34 32 32 30 29 28 27 26 25 24 24 23 22 21 20 20 19 18 17 17 16 15 14 14 13 13 13 12 11 10 9 8 7 8 8 8 7 7 7 7 7 6 6 4 2 2 2 1 0 1 3 3 4 4 2 1 2 2 1 0 2 2 3 4 3 3 2 1 1 2 3 4 6 8 9 9 9 9 8 8 8 8 8
35 34 33 32 31 29 29 28 27 26 25 24 24 23 22 21 20 20 19 19 18 17 16 16 15 15 14 14 13 12 12 11 9 8 8 8 9 9 8 7 7 7 7 6 5 4 2 1 2 2 2 3 4 4 6 5 3 2 1 1 0 0 2 3 1 2 2 2 2 2 1 1 2 4 6 7 8 9 9 9 9 9 10 9 8
35 34 33 31 30 29 28 27 26 26 25 25 24 24 23 22 21 20 20 19 19 17 17 17 16 16 15 14 14 12 11 11 10 9 8 8 9 10 9 8 8 7 6 5 5 4 2 1 1 2 3 3 4 5 7 6 3 3 1 0 0 1 2 4 3 2 1 1 1 2 3 2 1 3 5 6 7 9 9 9 10 10 10 10 9
34 34 33 31 30 29 28 27 27 26 26 26 25 25 23 22 21 20 20 20 19 18 18 17 16 16 15 14 14 13 12 11 11 10 9 8 10 10 9 9 8 7 6 5 5 4 3 3 2 3 4 5 6 6 7 5 4 5 4 2 2 2 2 3 4 3 2 2 2 0 2 4 3 1 4 6 6 8 8 8 9 9 9 9 9
35 35 33 32 31 30 29 28 28 27 27 27 26 26 24 23 22 21 21 20 20 19 18 18 17 16 16 15 14 13 12 11 11 11 10 9 9 9 9 9 8 7 7 7 6 5 4 4 4 4 5 5 7 7 6 5 5 6 6 5 4 4 3 3 4 4 3 4 4 2 1 2 3 2 2 3 6 7 7 7 8 8 8 9 9
35 34 33 33 32 31 30 29 29 28 28 28 27 26 25 23 22 22 21 21 20 20 19 18 17 17 16 16 15 14 13 12 12 11 10 9 8 8 9 9 8 8 8 7 7 6 6 6 6 6 6 5 6 7 7 7 6 7 7 7 7 5 4 4 4 5 5 5 5 3 2 1 1 2 2 2 4 4 4 6 7 7 9 9 10
36 35 34 34 33 32 31 31 30 30 29 28 28 27 25 24 23 23 22 22 21 20 20 19 18 18 17 16 15 15 14 13 13 11 10 9 8 8 8 8 8 8 7 7 7 7 7 7 7 8 8 6 6 8 10 9 8 8 7 7 6 5 3 4 3 5 5 5 5 3 1 1 1 1 1 1 3 2 2 5 6 8 9 10 10
36 36 35 34 34 33 32 32 31 30 30 29 28 27 25 24 23 23 23 23 22 21 21 20 19 19 18 17 16 16 15 14 13 12 11 10 10 9 8 7 8 8 8 8 8 8 8 8 9 11 10 7 8 9 11 11 9 8 8 6 4 4 3 2 2 3 3 3 4 3 1 0 1 1 1 1 2 2 2 4 6 7 9 9 9
37 36 35 34 34 33 32 32 32 31 31 29 28 27 25 25 24 24 24 23 23 22 21 21 20 20 19 18 17 16 15 14 14 13 12 11 11 10 9 9 9 10 10 10 10 10 10 10 10 12 12 9 9 9 11 12 10 9 8 6 4 4 4 3 3 3 3 4 4 3 1 2 1 1 0 1 2 2 2 3 5 6 7 7 7
37 36 35 35 34 34 33 32 32 31 31 29 28 27 26 25 24 24 24 24 24 23 22 21 21 21 20 19 17 16 15 14 13 12 12 11 11 11 10 10 10 11 11 11 11 11 11 12 12 12 12 11 10 10 11 13 12 10 9 7 6 5 5 5 3 2 3 5 5 3 2 3 3 2 2 0 1 2 2 3 4 5 6 6 6
36 36 36 35 34 34 33 33 32 31 30 30 29 28 26 25 25 24 25 25 24 23 22 22 22 22 21 20 18 16 15 14 12 11 12 12 11 12 11 11 12 12 12 12 12 12 13 13 13 13 13 12 12 11 11 13 13 12 11 9 7 7 7 6 4 2 3 5 5 3 2 3 4 3 3 1 0 1 2 2 3 3 5 6 6
35 36 35 35 34 34 33 33 32 32 31 30 29 28 27 26 26 26 26 26 25 24 24 24 23 22 21 20 19 17 16 15 13 12 12 12 12 13 13 12 13 13 13 13 13 13 13 14 14 14 13 13 13 12 12 13 14 13 12 11 9 8 8 7 6 4 3 4 5 3 1 2 3 4 3 2 2 0 1 1 1 2 2 4 6
35 36 35 35 35 34 34 34 33 33 32 31 31 30 30 29 28 28 29 28 27 26 25 24 24 23 22 21 20 19 17 15 14 13 13 13 13 13 13 13 13 14 14 14 13 13 14 14 14 13 12 12 12 12 13 13 14 14 13 12 11 10 9 8 8 6 5 4 4 3 1 1 2 3 4 4 4 2 1 1 1 2 1 1 3
36 36 36 35 35 35 35 35 34 34 33 33 33 33 33 31 31 31 31 30 28 27 26 25 24 24 23 22 21 20 18 16 15 14 13 13 13 13 13 13 13 14 13 13 13 14 14 14 14 12 12 12 12 12 12 12 14 15 13 12 12 11 10 9 9 8 8 7 6 5 2 1 2 3 3 5 5 4 3 1 1 2 2 1 1
38 37 36 36 35 35 35 35 35 35 34 34 34 34 34 32 32 31 30 29 28 27 26 25 25 24 24 23 22 20 19 17 16 15 15 14 14 14 13 13 13 13 12 12 13 14 15 14 14 13 13 12 11 11 12 12 13 14 13 11 11 11 10 9 9 9 10 10 8 7 5 3 2 2 2 4 5 4 3 2 2 2 2 2 2
39 38 37 36 36 36 36 36 35 36 35 35 35 34 34 32 31 30 29 29 28 28 26 25 25 25 24 23 22 21 20 18 17 16 16 16 15 14 14 14 14 13 13 13 14 14 15 16 15 14 13 12 11 12 12 13 13 13 11 9 9 10 9 9 9 9 10 12 10 8 7 5 3 2 2 3 5 5 5 5 5 5 4 2 2
41 39 38 37 37 37 37 37 36 37 36 35 35 34 33 32 31 31 29 28 28 27 27 26 26 25 24 23 22 21 21 20 18 18 18 16 15 15 15 15 15 14 14 14 15 15 16 16 15 14 13 12 11 12 13 13 14 12 9 8 8 9 8 8 9 9 10 11 11 10 9 7 4 2 1 2 4 6 6 5 7 7 6 3 2
43 41 40 39 38 38 38 38 38 37 37 36 35 34 33 33 33 33 31 30 30 29 29 29 29 27 26 24 23 22 21 20 19 19 19 17 16 15 15 16 15 15 15 15 15 15 15 15 15 14 13 12 11 12 13 14 14 11 9 7 6 7 8 9 9 10 10 10 10 10 9 8 5 3 2 1 4 5 4 5 7 8 8 6 2
44 42 41 39 39 38 37 38 38 38 38 37 36 35 35 35 35 35 35 34 34 33 33 32 30 29 27 25 24 22 21 20 20 20 19 18 17 16 16 16 16 16 15 15 15 15 15 15 14 13 12 12 12 13 13 13 13 13 11 9 6 5 7 9 11 11 10 11 11 10 10 9 7 5 3 2 4 4 3 4 7 7 7 8 6
45 42 41 40 39 38 36 36 37 38 38 37 37 37 37 37 37 37 37 36 36 35 33 31 30 29 27 25 24 22 21 21 20 20 20 19 18 17 16 16 16 17 16 17 16 15 15 15 14 14 13 13 14 13 13 13 14 14 13 11 10 7 6 9 12 11 10 11 12 12 12 11 9 7 5 4 4 5 3 3 5 5 6 7 7
45 44 42 40 39 38 37 36 36 36 37 36 36 37 38 39 38 38 38 38 37 35 32 31 30 29 28 26 25 23 22 22 21 21 21 20 19 18 18 18 18 18 18 17 16 15 15 15 15 15 14 14 14 14 13 14 15 15 14 13 12 11 9 9 11 12 12 11 12 14 14 13 12 10 8 6 5 5 3 0 2 4 4 5 6
47 46 43 41 40 39 38 38 37 37 36 36 35 36 37 39 39 39 39 38 37 35 33 32 31 30 29 27 26 25 24 23 22 22 22 21 20 19 18 19 19 18 18 17 16 15 15 16 16 15 15 15 14 14 14 15 15 15 15 15 14 13 13 12 11 12 13 12 12 14 14 14 14 13 10 8 6 6 4 3 1 2 3 3 3
50 48 45 43 42 41 40 40 39 39 38 37 36 35 36 37 40 41 40 39 38 36 35 34 33 31 30 28 27 27 25 24 23 23 23 22 21 19 19 19 19 19 18 17 16 16 16 16 16 15 14 14 14 14 15 15 15 15 15 15 15 15 15 15 13 12 13 14 13 12 13 14 16 14 12 10 8 7 6 5 4 3 2 3 2
51 50 49 47 45 44 43 43 41 40 40 39 38 37 36 36 38 40 41 40 39 38 37 36 35 33 31 29 28 28 27 25 24 24 24 23 22 21 21 20 19 19 18 17 16 16 16 16 16 15 14 13 13 14 15 16 15 15 15 15 15 15 16 16 15 13 13 14 14 12 12 13 15 15 13 11 9 8 8 7 6 5 4 3 2
Wind_Direction
142 136 134 132 127 129 131 131 135 138 142 147 143 137 140 141 141 140 139 141 143 142 140 136 133 127 121 119 118 118 117 116 111 107 104 101 100 98 97 95 95 95 95 94 94 97 98 101 103 103 105 107 105 100 101 97 86 88 87 77 69 76 91 100 99 97 100 108 114 122 128 130 127 118 109 101 95 92 96 102 108 113 114 113 112
144 140 137 133 129 131 134 134 135 137 140 143 142 140 140 141 140 138 139 141 142 141 137 135 130 125 123 122 123 123 122 117 110 104 101 99 99 100 97 95 93 93 93 93 96 100 101 103 102 102 106 110 110 109 111 108 97 97 96 84 76 76 87 100 107 105 98 109 115 118 126 127 121 115 109 104 99 98 103 108 109 110 110 111 116
146 142 139 133 130 133 135 136 137 138 139 139 141 143 141 141 140 138 140 141 140 138 135 133 129 127 126 126 128 128 123 114 107 102 99 100 99 98 96 93 92 92 92 93 95 100 104 104 103 103 106 108 111 111 114 116 108 108 109 94 86 82 83 92 104 111 107 107 110 116 124 121 117 114 108 105 103 104 108 110 108 107 107 110 117
147 142 140 135 133 136 137 137 138 139 138 138 139 141 142 141 140 140 142 141 139 138 136 133 130 130 130 131 131 127 119 111 106 103 101 99 97 96 93 92 91 91 92 94 94 97 102 104 108 109 108 107 110 112 114 117 114 118 120 107 96 91 88 92 95 106 115 110 108 116 125 123 120 114 109 109 109 111 114 114 111 107 106 109 115
148 144 142 139 137 138 139 139 139 140 138 138 140 141 141 141 142 143 143 142 141 139 137 135 134 135 135 133 128 123 116 111 107 103 101 97 95 93 91 91 89 89 89 91 94 95 97 100 108 110 109 109 110 112 117 122 122 124 127 119 108 102 95 96 98 101 110 120 122 121 123 124 122 116 113 113 113 114 115 114 112 109 107 108 111
151 146 145 142 140 141 141 141 140 140 139 140 141 140 140 142 144 145 145 144 142 140 138 138 140 140 137 130 125 122 116 110 105 102 99 95 94 91 89 88 86 88 88 88 91 92 91 94 101 104 106 108 111 111 116 126 126 124 129 124 119 118 104 97 104 106 106 116 128 125 123 125 124 121 118 118 117 115 113 112 112 113 111 110 111
152 149 147 144 143 143 143 143 142 140 140 143 142 141 141 143 145 145 145 143 142 141 140 142 143 142 134 128 127 123 116 106 101 99 97 94 91 88 86 84 84 86 89 90 90 92 90 90 99 102 104 104 108 110 113 122 122 120 128 126 123 126 114 100 105 112 113 115 125 129 129 128 128 127 125 124 122 116 112 110 113 116 114 113 112
154 152 149 148 148 146 146 145 144 143 142 145 144 143 144 145 146 145 145 143 143 142 142 144 142 139 133 130 129 124 115 104 96 93 92 89 86 84 83 82 85 85 87 89 88 92 93 93 101 104 105 105 105 107 110 117 122 122 123 124 123 126 122 109 106 114 120 122 124 130 131 131 135 133 127 126 123 118 114 111 113 114 114 116 117
155 154 152 152 151 148 148 147 146 145 146 147 147 146 147 148 147 146 146 144 143 142 142 141 138 136 134 132 129 125 117 105 91 85 86 84 82 80 81 83 85 87 88 88 89 93 97 99 101 101 102 104 103 103 108 114 119 118 116 122 125 126 129 119 112 116 124 127 126 129 130 134 140 136 129 128 126 121 118 116 115 114 114 116 117
158 156 156 154 151 150 150 149 149 148 149 149 149 150 150 150 149 149 148 147 145 144 142 138 136 136 135 131 129 127 117 103 89 83 84 82 80 79 82 85 86 88 90 92 94 95 99 103 103 101 97 97 98 96 102 110 114 115 115 120 124 125 130 125 117 120 126 130 131 128 128 136 140 136 133 134 131 126 123 119 114 114 117 117 115
161 159 159 156 153 153 153 152 152 152 153 152 152 153 153 153 152 153 152 151 149 147 144 138 135 136 135 131 129 125 114 104 93 85 85 82 79 81 84 86 87 88 91 94 95 94 97 102 107 105 98 96 98 96 94 101 110 117 119 120 121 122 126 128 123 121 126 133 135 131 130 138 138 137 138 140 138 131 129 124 117 116 121 121 116
164 162 160 157 155 156 156 155 155 156 157 156 156 157 157 157 157 157 156 155 153 150 146 139 136 137 136 132 128 121 114 110 99 89 88 84 81 83 86 87 88 88 90 93 94 94 94 98 105 106 102 100 101 101 96 95 104 114 121 121 122 121 125 133 133 127 127 134 137 138 137 140 141 141 143 147 145 137 133 130 125 122 123 124 121
165 163 160 159 158 159 159 158 159 159 160 160 160 161 160 160 161 162 161 159 157 153 148 140 138 138 137 132 126 121 118 116 104 94 91 86 84 85 88 89 89 89 90 91 94 93 91 93 99 103 103 100 96 98 99 97 96 104 115 119 121 122 127 137 141 136 132 139 140 142 143 142 144 145 147 150 147 143 141 136 133 129 125 125 125
165 163 162 161 160 161 163 161 162 162 163 164 164 164 163 163 165 166 164 163 161 156 149 142 140 139 137 133 129 126 125 123 108 100 95 88 86 87 92 94 93 92 93 93 96 95 93 94 94 98 98 96 90 92 100 103 101 100 106 113 116 119 126 138 141 135 133 145 144 143 146 143 144 147 149 149 147 148 147 142 139 134 128 126 127
165 163 163 163 162 163 165 164 165 165 166 167 167 167 166 167 169 170 168 167 166 161 153 147 146 144 142 140 136 133 130 126 113 104 98 90 88 91 97 100 100 98 98 98 97 97 96 93 87 87 86 87 88 90 97 104 109 107 108 106 105 115 128 139 140 133 127 136 145 146 146 140 144 148 148 149 149 150 149 147 142 139 136 131 127
165 164 165 164 164 165 166 167 168 169 170 170 170 170 169 171 173 174 173 172 173 169 163 157 155 152 150 148 141 133 130 129 117 108 100 93 91 94 102 106 107 103 103 103 101 98 94 90 83 77 73 74 81 85 92 98 104 102 104 104 97 109 129 143 142 134 127 128 138 149 151 141 144 147 147 149 150 151 149 149 147 146 146 138 129
167 167 166 165 166 167 168 168 171 172 173 174 174 174 174 175 176 178 179 181 183 181 176 169 166 162 159 155 146 133 129 131 121 113 106 99 95 97 106 109 112 107 105 106 105 102 95 90 83 78 75 75 78 80 87 92 97 96 96 101 99 103 122 142 147 140 131 129 129 142 155 148 147 150 150 150 152 151 148 150 152 154 155 145 135
169 169 167 166 167 169 169 169 171 174 176 176 178 179 180 181 182 185 187 191 193 192 188 179 176 173 170 164 155 140 133 136 127 120 113 105 99 100 108 114 117 110 106 109 110 108 98 90 85 85 84 83 82 80 84 87 92 98 98 99 100 102 112 130 144 149 141 133 129 133 150 158 157 156 156 152 154 154 150 155 160 160 162 155 145
172 172 170 169 170 170 171 171 172 174 177 178 180 182 185 187 189 193 196 199 199 200 194 185 183 181 181 174 165 157 144 143 137 129 120 111 106 104 110 119 124 116 111 112 111 109 100 91 87 86 86 85 85 85 87 91 93 89 90 92 94 97 101 112 130 144 145 139 136 133 143 161 165 162 161 159 159 159 157 161 166 164 163 162 154
175 174 173 172 172 172 173 173 174 175 177 178 179 181 184 187 191 196 199 202 202 201 195 189 190 188 189 182 177 175 161 155 149 141 133 125 120 115 115 122 130 127 116 113 110 108 102 96 91 86 85 84 84 86 84 86 86 78 79 89 96 93 90 99 112 128 140 140 147 150 143 156 170 169 167 168 166 163 165 164 165 166 165 165 159
177 177 175 176 174 174 176 176 177 177 177 178 180 181 182 185 190 194 196 200 199 198 194 192 195 193 194 189 186 183 172 166 156 149 145 137 133 129 128 129 139 137 122 116 113 109 107 105 98 86 79 78 76 77 77 71 68 73 82 98 92 85 85 94 104 114 127 134 154 175 159 156 170 177 174 173 174 169 168 166 164 167 168 169 163
178 178 178 179 177 176 177 179 180 180 179 180 183 184 185 187 190 192 193 195 195 196 196 197 198 196 196 192 188 182 176 171 159 154 151 145 145 144 142 143 148 149 133 125 124 118 115 114 107 94 80 73 72 78 84 78 71 68 75 90 75 66 81 98 126 117 110 129 161 187 179 169 172 177 178 177 179 177 173 170 168 170 172 173 172
180 180 180 181 181 180 180 182 183 183 184 185 188 189 190 191 190 191 193 194 196 199 201 202 200 197 197 191 185 182 179 175 167 165 163 156 155 153 153 153 153 156 147 138 133 129 120 114 111 106 97 83 77 89 95 85 75 72 79 88 72 62 70 104 154 145 113 123 145 184 193 189 183 177 178 183 184 184 182 179 175 175 178 179 181
182 181 181 182 185 184 184 186 186 187 189 191 193 194 195 196 193 193 196 197 200 203 203 204 201 200 197 190 185 184 183 180 178 179 175 168 163 156 155 156 156 157 153 147 140 136 125 106 105 108 110 109 99 104 109 93 77 82 99 101 84 67 59 73 167 180 180 154 142 165 193 196 200 189 182 185 189 191 192 189 185 183 184 185 187
183 183 183 185 187 188 189 189 190 191 193 195 196 197 199 200 197 196 199 201 204 204 204 204 203 202 197 189 187 187 187 186 186 187 182 177 171 163 159 159 160 159 156 154 151 147 129 99 101 110 113 129 151 150 136 111 88 88 111 116 98 80 62 57 125 180 181 178 176 180 186 194 210 205 194 190 190 193 197 198 196 193 192 192 191
185 186 187 188 189 191 193 192 194 195 197 199 198 200 202 203 202 200 202 203 205 204 204 205 204 202 196 191 190 190 190 191 191 189 187 186 179 173 170 166 166 166 166 169 170 167 148 121 121 114 105 162 179 179 174 160 127 96 111 130 109 112 89 69 90 139 165 175 196 200 202 206 216 215 205 196 192 192 199 204 202 200 199 200 199
187 188 189 190 191 192 195 195 196 197 199 201 201 203 204 205 205 205 204 204 206 205 205 205 203 200 195 193 193 194 195 195 196 192 191 191 185 183 182 175 175 177 179 184 186 182 158 137 159 112 41 269 230 209 204 213 180 102 86 126 87 121 145 102 98 116 128 131 160 203 221 214 212 219 212 204 200 193 196 202 203 205 204 205 207
188 189 190 192 193 194 196 197 198 198 200 201 202 203 204 205 205 207 207 206 207 206 205 204 202 198 196 196 195 197 198 199 200 195 196 196 191 194 193 185 184 189 192 195 196 195 178 132 126 135 299 303 293 262 226 231 211 133 75 119 107 78 177 143 101 108 96 81 82 84 241 221 209 219 220 216 211 201 199 199 200 206 209 210 211
192 191 192 194 195 195 196 197 198 199 200 200 201 202 204 205 206 208 208 208 208 206 205 203 200 198 198 199 197 199 200 202 200 195 199 198 196 201 202 198 197 201 202 204 208 213 220 162 127 171 246 271 284 270 242 242 227 195 81 104 130 330 207 209 154 121 90 64 63 56 25 257 218 220 227 226 222 215 208 201 199 204 209 210 210
195 195 196 196 196 197 197 198 198 199 200 200 201 202 204 205 207 208 208 210 208 205 204 202 200 200 201 201 200 203 203 204 202 200 204 199 199 206 208 209 211 213 216 219 223 234 250 255 194 235 275 293 286 257 240 253 257 230 244 140 260 333 253 234 228 193 169 173 59 56 41 6 269 223 234 231 226 227 219 208 206 207 207 209 209
198 198 198 198 197 198 199 199 199 200 201 202 203 204 206 207 207 209 209 210 208 205 203 202 202 202 203 204 204 206 207 207 205 208 211 202 204 211 214 217 220 225 232 236 241 250 258 270 265 269 291 305 296 257 233 251 257 236 246 260 260 299 292 239 237 229 211 222 246 344 33 16 13 278 249 238 228 231 230 220 216 216 215 213 213
201 200 199 199 199 200 200 201 201 202 204 205 206 207 209 209 208 209 209 209 207 206 205 204 204 203 204 207 208 209 209 209 209 215 216 209 211 216 219 223 228 237 243 246 251 257 255 266 272 281 286 290 293 264 232 228 229 237 253 267 269 273 277 251 250 249 243 243 241 259 339 11 18 11 299 262 242 234 231 230 226 225 226 225 222
202 202 201 201 201 202 202 203 205 206 207 208 209 211 212 211 210 210 209 209 208 208 206 207 207 205 207 209 212 212 213 213 215 220 220 218 219 222 225 227 235 242 246 250 258 265 262 267 272 278 277 274 283 263 240 225 227 247 257 272 274 257 264 271 270 263 256 247 231 242 290 302 336 -0 2 317 268 249 229 228 224 224 230 232 230
204 203 204 204 204 205 206 207 208 209 210 211 212 213 213 212 212 211 210 209 210 210 208 209 209 208 210 211 214 216 217 218 220 224 224 227 227 227 230 231 239 245 250 254 260 269 267 274 274 269 268 261 264 256 245 238 241 253 259 282 278 238 251 273 269 260 248 235 220 216 263 290 278 261 12 344 291 281 230 222 219 223 229 231 232
205 205 206 206 207 208 209 210 210 211 211 212 213 213 213 213 213 212 211 210 211 212 211 211 212 211 212 213 214 217 219 221 224 228 232 237 239 237 238 241 249 252 256 258 260 269 270 276 276 275 277 260 249 253 249 245 245 250 258 284 275 213 220 235 225 234 221 207 202 185 115 0 255 235 233 279 289 289 232 224 226 230 233 234 236
207 207 207 207 209 210 211 212 212 213 212 212 213 213 214 213 214 214 213 212 212 212 212 213 214 214 215 215 215 216 220 222 225 231 238 243 245 247 247 248 254 257 262 264 264 270 273 277 276 278 285 267 245 251 254 250 244 244 252 264 254 217 209 195 184 198 192 194 192 171 101 75 100 180 206 231 259 277 258 235 240 242 245 246 240
208 209 209 209 210 211 212 213 213 214 213 213 214 213 214 214 215 215 214 214 213 214 213 215 216 217 217 216 215 216 219 219 223 231 238 243 248 252 253 253 259 262 265 268 270 274 275 276 275 276 282 275 258 253 254 253 250 247 246 247 243 228 213 197 182 175 195 210 200 177 134 93 90 93 86 103 241 268 284 270 261 252 254 259 246
210 211 212 212 212 212 213 214 216 216 215 215 215 215 214 215 216 216 217 216 215 215 215 217 218 218 218 216 215 217 218 219 223 231 237 243 250 254 255 257 262 265 268 270 273 275 275 277 278 278 276 273 267 261 255 253 252 251 245 244 246 235 220 212 205 178 192 213 204 184 143 95 86 81 73 54 0 258 270 285 283 263 255 260 257
211 212 213 214 215 216 216 217 218 217 217 217 216 216 216 217 217 217 218 218 217 217 216 218 219 218 218 216 216 217 218 221 223 230 238 245 251 254 256 259 264 267 268 270 273 275 279 280 279 278 274 267 265 264 258 252 249 248 244 246 250 238 225 222 221 212 201 206 202 196 152 79 71 60 55 43 36 7 286 298 326 320 273 263 265
211 212 214 215 217 218 218 219 219 219 218 217 217 217 217 217 217 217 218 218 217 217 218 219 219 218 218 217 219 218 219 222 224 230 239 246 250 253 255 259 264 265 266 269 275 279 280 279 277 276 271 262 259 258 256 251 245 243 242 245 250 244 233 230 230 228 224 220 221 227 234 45 43 50 54 46 36 27 15 343 333 -0 353 302 281
212 213 214 216 216 217 218 219 219 219 218 217 217 216 216 216 216 217 217 217 217 217 219 220 220 220 218 219 221 220 221 223 227 232 239 245 248 249 252 257 261 263 267 272 276 278 276 275 276 275 269 262 258 253 251 249 244 242 246 250 249 242 235 232 233 232 227 228 236 241 247 318 2 27 55 46 33 27 25 10 337 345 352 -0 334
213 213 214 216 217 217 219 219 219 219 219 217 217 217 217 217 218 218 217 218 218 219 221 222 223 222 220 222 223 223 224 226 231 235 238 244 246 247 250 255 260 264 270 273 274 276 274 274 276 276 274 268 260 248 243 245 245 248 256 256 242 231 229 229 233 231 221 224 233 242 251 267 318 349 39 40 33 35 39 50 50 32 13 -0 340
213 213 215 217 218 219 220 220 220 220 220 219 219 219 219 219 221 221 220 220 221 222 224 224 226 226 224 225 226 226 227 229 234 237 238 241 244 247 250 255 260 265 270 272 273 274 272 273 275 277 275 269 257 244 240 242 247 255 257 245 226 224 228 228 231 228 216 219 228 240 248 255 283 317 21 36 40 53 69 80 67 47 35 19 339
215 215 215 216 218 219 220 219 220 221 221 220 220 221 221 222 223 224 225 225 225 225 226 226 227 228 228 228 228 228 228 230 233 237 238 239 243 247 249 254 259 265 269 271 273 274 272 272 274 275 272 266 255 243 241 245 249 253 243 225 221 223 226 223 220 214 209 214 224 235 239 240 261 294 345 52 66 77 86 76 52 40 34 20 302
216 215 214 215 216 217 219 220 221 222 222 221 221 222 222 223 224 224 225 226 227 227 226 226 226 226 227 227 227 227 227 228 231 235 237 239 243 246 249 254 259 264 269 272 275 274 272 271 270 270 268 263 254 244 247 251 247 239 222 211 217 223 228 224 210 204 206 211 221 230 231 230 242 262 265 133 106 102 95 59 42 39 37 30 -0
217 215 214 215 216 217 218 219 222 223 224 223 222 222 222 222 223 223 223 223 224 225 226 226 226 226 227 227 227 227 228 228 229 233 236 239 242 246 250 254 259 264 269 273 275 274 273 271 269 268 265 259 252 247 251 248 236 225 216 212 211 218 233 226 210 207 209 213 221 226 224 225 232 241 237 186 145 130 102 49 39 36 37 38 33
216 215 215 215 217 218 218 219 221 223 224 224 223 223 223 224 224 224 224 225 225 227 228 229 230 230 230 230 230 228 228 228 230 233 235 238 241 244 248 253 259 263 267 271 271 271 272 270 268 267 264 257 252 252 249 239 230 224 220 221 221 222 235 230 219 217 217 218 222 224 224 224 226 232 228 204 175 155 129 51 39 33 34 40 41
216 215 215 215 217 219 220 220 221 223 224 224 224 223 224 225 226 226 226 227 229 231 232 233 234 234 234 234 233 230 229 228 231 234 236 238 240 243 247 251 256 260 264 268 268 268 268 266 266 264 260 255 252 251 242 233 231 230 226 228 231 232 239 242 235 231 234 236 231 227 226 224 225 230 222 208 198 184 179 103 39 35 34 38 44
216 215 214 214 215 218 220 222 223 224 225 225 225 225 225 226 227 228 228 229 231 233 234 236 237 237 237 236 235 233 230 230 233 236 237 239 241 243 247 250 254 258 263 266 264 262 262 262 265 263 259 257 254 245 234 231 234 233 232 234 238 240 244 247 247 241 240 246 245 236 231 226 224 227 222 213 212 211 215 235 295 8 29 35 44
218 217 216 215 216 218 220 222 223 225 226 227 227 226 226 226 227 228 229 230 230 232 234 236 238 239 238 238 237 234 233 233 235 238 239 241 243 244 245 246 250 256 261 262 259 258 260 263 264 262 257 256 252 239 228 229 233 233 234 238 241 245 248 249 251 247 240 241 246 247 242 235 230 230 228 222 222 226 231 241 262 299 353 20 37
219 219 219 219 219 219 221 222 224 224 226 227 227 228 227 226 227 228 230 231 231 232 233 235 236 238 238 238 237 237 236 237 238 240 242 243 244 244 243 244 247 253 257 257 255 257 261 263 264 257 250 247 242 233 228 229 232 232 233 241 247 248 251 254 257 258 252 247 248 252 252 246 240 238 238 237 237 239 239 243 257 273 296 332 352